Погода в Жарыке

Погода в Жарыке : погода сейчас, прогноз погоды и архив. Всё, что Вы хотите узнать о погоде в Жарыке!

Поиск расширенной информации на нашем сайте:

Другие новости

Новости СМИ2

Главная страница сайта

Новости сайта

02.10.2013

Напоминаем, что на нашем новом сайте вы можете получить высокодетализированные прогнозы погоды по пунктам России, СНГ и мира (включающие важные для авиации метеовеличины, такие как направление и скорость ветра, видимость, явления погоды, количество и форма облачности, нижняя и верхняя граница облачности), а также ознакомиться с разнообразными материалами по авиационной метеорологии и подборкой полезных ссылок на эту тему.

Сайт Метеоцентр.Азия посвящён разработке технологий оптимизации авиаметеорологического обслуживания, включая проектирование и перспективное создание нескольких автоматизированных авиаметеорологических систем:
- система выпуска высокодетальных прогностических карт явлений погоды для нижнего воздушного пространства по России и ближнему зарубежью;
- система верификации прогнозов TAF (выпускаемых синоптиками официальных АМСГ РФ и ближнего зарубежья) и AUTOTAF (выпускаемых сайтом Метеоцентр.Азия) - выявление ошибок, онлайн-сопоставление с фактической погодой METAR, автоматическое внесение коррективов в прогнозы при резком отклонении фактической погоды от прогноза, подсчёт оправдываемости прогнозов по элементам и в целом;
- система обработки, анализа и отображения авиаметеорологической информации для применения провайдерами метеорологической информации.


Погода в Жарыке - сегодня

Время (UTC), дата Ветер
(°,м/с) 
Видим.   Явления Облачность Т
(°С)
Тd
(°С)
f(%) Тe
(°С)
Pmin
(гПа)
dP
(гПа)
Po
(мм)
O2
(г/м3)
Тmin Tmax R s Состояние
почвы
21 17.01.17 070 (В) н/о    ясно 
-8 -13.5 65 -12  1036.9  -1  715  298           
00 18.01.17 070 (В) н/о    ясно 
-7.6 -13.4 63 -12  1036  -0.7  715  297           
03 18.01.17 050 (СВ) 20000 м    ясно 
-10.1 -15.8 63 -10  1036.8  -0.1  715  300        34  равномерный
сухой снег
100% 
06 18.01.17 090 (В) 20000 м    4/0 верхняя 
[Ci fib]
-5.7 -14.3 51 -7  1035.8  0.4  715  295  -10.1         
09 18.01.17 090 (В) 20000 м    8/0 верхняя 
[Ci fib]
-5.1 -14.4 48 -6  1034.5  -1  714  294           
12 18.01.17 020 (С) 20000 м    8/0 верхняя 
[Ci sp]
-8.2 -16 53 -10  1035.3  -0.2  714  298           
15 18.01.17 020 (С) н/о    3/0 верхняя 
[Ci fib]
-8.7 -15.6 57 -8  1035.2  -0.2  714  298    -5.1       
18 18.01.17 110 (В) н/о    ясно 
-11.5 -17.1 63 -11  1035.9  -0.2  714  302    -5.1       
21 18.01.17 110 (В) н/о    ясно 
-13 -17.5 69 -15  1035.3  -1  713  303           
00 19.01.17 110 (В) н/о    4/0 верхняя 
[Ci sp]
-14.1 -17.9 73 -14  1035.1  -0.6  713  304           
03 19.01.17 110 (В) 20000 м    8/0 средняя, верхняя 
[Ac lent|Ci sp]
-11.1 -16.2 66 -14  1034  713  301        33  равномерный
сухой снег
100% 
06 19.01.17 140 (ЮВ) 20000 м    8/0 средняя, верхняя 
[Ac lent|Ci sp]
-10.3 -16.2 62 -12  1034.2  0.4  713  300  -14.1         
09 19.01.17 140 (ЮВ) 20000 м    8/3 600 м верхняя 
[Sc|Ci sp]
-7.9 -13.3 65 -9  1032.1  -1.2  712  297           
12 19.01.17 140 (ЮВ) 20000 м    10/10 600 м 
[Sc]
-9.3 -13.7 70 -9  1032.5  -0.1  712  298           
15 19.01.17 140 (ЮВ) н/о  слаб. снег  10/10 600 м 
[Sc]
-7.3 -10.2 80 -9  1030.9  -0.8  711  295    -7.3  0.0     
18 19.01.17 140 (ЮВ) н/о  слаб. снег  10/0 средняя 
[As op]
-7.2 -10.1 80 -9  1030.3  -0.5  711  295    -7.3  0.0     
21 19.01.17 160 (Ю) н/о  снег  10/0 средняя 
[As op]
-8.3 -11 81 -11  1029.4  -1.2  710  296           
00 20.01.17 180 (Ю) н/о  слаб. снег  10/0 средняя 
[As op]
-8.7 -11.5 80 -12  1028.7  -0.8  710  296           
03 20.01.17 160 (Ю) 20000 м  {снег}  10/0 средняя 
[As op]
-9.1 -12.9 74 -13  1028.6  -0.2  709  297      34  равномерный
сухой снег
100% 
06 20.01.17 160 (Ю) 10 км  слаб. снег  10/0 средняя 
[As op]
-10.1 -14.5 70 -14  1029.4  0.4  710  298  -9.1       
09 20.01.17 160 (Ю) 10 км  слаб. снег  10/0 средняя 
[As op]
-9.9 -13.9 73 -15  1028.2  -1  709  298           
12 20.01.17 160 (Ю) 10 км  слаб. снег  10/0 средняя 
[As op]
-9.1 -13.4 71 -13  1027.2  -0.7  708  296           
15 20.01.17 160 (Ю) н/о  {снег}  10/0 средняя 
[As op]
-8.8 -12.1 77 -13  1026.1  -0.9  708  296    -8.8     
18 20.01.17 160 (Ю) н/о    10/0 средняя 
[As op]
-10.9 -14.5 75 -15  1024.7  -1.9  706  298    -8.8     
21 20.01.17 160 (Ю) н/о    10/0 средняя 
[As op]
-11.4 -14.9 75 -16  1023.3  -1.5  705  298           
Время (UTC), дата Ветер
(°,м/с) 
Видим.   Явления Облачность Т
(°С)
Тd
(°С)
f(%) Тe
(°С)
Pmin
(гПа)
dP
(гПа)
Po
(мм)
O2
(г/м3)
Тmin Tmax R s Состояние
почвы

Для получения пояснительной информации подведите курсор к названию столбца.

ПОГОДА в Жарыке - архив

Всё, что Вы хотите узнать о погоде в Жарыке - удобно и подробно!

Выберите нужную дату (начиная с 1 января 2015* года) и нажмите кнопку "Найти".
Будут отображены архивные сводки погоды по пункту Жарык, начиная с указанной даты.


Отображать данные в формате CSV (для использования в таблицах Excel)


Внимание! Наш архив погоды предназначен исключительно для личного некоммерческого использования в познавательных целях. Если Вам необходимы официальные справки о состоянии погоды (для производственных, юридических, коммерческих и т.п. целей), обращайтесь в органы Росгидромета.

*Примечание: данная дата относится к архиву по метеостанциям СССР (Россия, СНГ, Балтия).
Архив по метеостанциям Зарубежной Европы и Азии (кроме Китая) хранится 10 дней, по другим регионам земного шара (Китай, Африка, Америка, Австралия, Океания) - 1 день.

Жарык - район местоположения метеостанции


Название, широта, долгота, высота метеостанции:
Жарык 48.9°ш. 72.9°д. 656 м над ур. моря [Казахстан]

Дополнительная информация

В oтличие oт бoльшинства пoгoдных сайтoв мы публикуем пoдрoбную метеoинфoрмацию в детальнoм прoфессиoнальнoм фoрмате.

Характеристики температуры и влажнoсти вoздуха измеряются на высoте 2 м в тени вдали oт зданий и деревьев.
Скoрoсть ветра измеряется на высoте 10 м (на урoвне рoста челoвека скoрoсть ветра ниже в 1.5-2 раза). Если метеoстанция нахoдится в гoрoде или в лесу, тo скoрoсть ветра занижена на 2-4 м/с пo сравнению с oткрытым местoм. Скoрoсть ветра над акватoриями крупных рек и oзёр, а также на вершинах хoлмoв на 2-5 м/с выше, чем в oбычных услoвиях.
Атмoсфернoе давление в разных тoчках местнoсти мoжет значительнo oтличаться oт давления на метеoстанции, в зависимoсти oт услoвий рельефа (при пoдъёме на 10 м давление пoнижается примернo на 1 мм рт.ст.).